www.pogodaiklimat.ru

Погода и климат >> Архив погоды >> Китай >> Гирин >> Чанбай


ПОГОДА в Чанбае

  • Прогноз погоды в Чанбае
  • Монитор погоды в Чанбае

АРХИВ ПОГОДЫ в Чанбае

Время (UTC), дата Ветер
(напр.,м/с)
 
Видим.   Явления Облачность Т
(С)
Тd
(С)
f
(%)
Тe
(С)
Тes
(С)
Комфортность P
(гПа)
Po
(гПа)
Тmin
(С)
Tmax
(С)
R
(мм)
R24
(мм)
S
(см)
09 14.07 СЗ 1 12 км слаб. дождь 10/10 600 м
[]
+18.4 +16.9 91 +20 +20 1003.1 890.3
12 14.07 СВ 1 н/о слаб. дождь 8/8 600 м
[]
+17.0 +16.8 99 +18 +18 1004.2 890.7 4
18 14.07 штиль 0 7000 м дымка ?/? +16.4 +16.2 99 +16 +16 1004.9 918.4 +24.3
21 14.07 С 1 10 км н/о +16.2 +16.0 99 +17 +17 1006.7 892.7
00 15.07 СЗ 1 13 км 9/9 600 м
[]
+19.1 +16.0 82 +22 +23 комфорт 1007.1 919.9
03 15.07 З 4 17 км 6/6 600 м
[]
+23.4 +17.2 68 +29 +34 душно 1005.8 894.5
06 15.07 З 2 21 км 8/8 600 м
[]
+24.2 +15.1 57 +27 +30 жарко 1005.1 894.1 +16.2
09 15.07 С 2 27 км слаб. дождь 10/10 600 м
[]
+20.2 +16.4 79 +24 +24 комфорт 1007.6 894.9
12 15.07 СВ 2 3300 м слаб. дождь 10/10 600 м
[]
+17.5 +17.3 99 +18 +18 1008.9 895.1 10
18 15.07 В 2 4300 м дымка ?/? +16.5 +16.5 100 +17 +17 1009.2 922.5 +25.1 0.2
21 15.07 штиль 0 н/о дымка н/о +16.3 +16.1 99 +16 +16 1011.3 896.8
00 16.07 З 1 16 км 8/8 600 м
[]
+19.9 +16.1 79 +23 +26 комфорт 1011.3 898.1 0.2
03 16.07 С 1 19 км 6/6 600 м
[]
+23.6 +15.9 62 +27 +36 жарко 1009.9 898.2
06 16.07 ЮЗ 2 22 км 5/5 600 м
[]
+26.3 +15.7 52 +29 +36 жарко 1007.9 897.3 +16.3
09 16.07 З 3 21 км 5/5 600 м
[]
+25.7 +16.3 56 +29 +30 душно 1007.6 896.9
12 16.07 В 1 23 км 5/5 600 м
[]
+21.5 +17.9 80 +26 +26 душно 1009.7 897.3
18 16.07 С 2 8000 м ?/? +16.3 +16.1 99 +16 +16 1010.5 896.1 +27.0
21 16.07 СВ 2 12 км н/о +16.2 +15.9 98 +16 +16 1010.6 896.1
00 17.07 Ю 1 15 км 8/8 600 м
[]
+21.1 +16.5 75 +25 +27 комфорт 1010.7 898.0
03 17.07 ЮЗ 3 18 км 5/5 600 м
[]
+24.9 +15.8 57 +28 +36 жарко 1008.6 897.5
06 17.07 З 3 20 км 9/9 600 м
[]
+26.5 +15.5 51 +30 +31 душно 1007.4 897.0 +16.0
09 17.07 З 2 18 км 10/10 600 м
[]
+24.4 +17.1 64 +28 +28 душно 1007.4 896.2
12 17.07 З 1 19 км 10/10 600 м
[]
+22.4 +16.9 71 +27 +27 душно 1008.5 896.5
18 17.07 штиль 0 9000 м ?/? +17.7 +17.2 97 +18 +18 1008.7 895.0 +27.2 0.4
21 17.07 СВ 2 9000 м н/о +16.8 +16.6 99 +17 +17 1009.5 895.4
00 18.07 Ю 2 7000 м дымка 8/8 600 м
[]
+20.7 +17.5 82 +25 +27 комфорт 1008.4 895.8 0.4
03 18.07 Ю 2 17 км 6/6 600 м
[]
+25.3 +15.6 55 +28 +36 жарко 1007.1 896.3
06 18.07 ЮВ 2 17 км 5/5 600 м
[]
+25.8 +16.1 55 +29 +36 душно 1005.8 895.3 +16.7
09 18.07 З 2 15 км 3/3 600 м
[]
+25.5 +17.7 62 +30 +31 душно 1005.4 894.8
12 18.07 С 1 13 км 5/5 600 м
[]
+20.4 +17.4 83 +25 +25 комфорт 1007.5 894.9
18 18.07 СВ 1 н/о дымка ?/? +16.0 +16.0 100 +17 +17 1008.3 894.0 +26.9
21 18.07 СВ 3 9000 м н/о +16.1 +15.8 98 +16 +16 1008.9 894.6
00 19.07 В 2 13 км 9/9 600 м
[]
+19.3 +16.7 85 +22 +23 комфорт 1009.6 896.4
03 19.07 С 2 13 км 4/4 600 м
[]
+25.6 +15.9 55 +29 +40 душно 1007.4 896.7
06 19.07 СЗ 2 18 км 3/3 600 м
[]
+29.9 +15.2 41 +32 +42 жарко 1004.9 895.9 +15.8
09 19.07 С 1 20 км 3/3 600 м
[]
+30.0 +14.5 39 +32 +34 жарко 1004.5 895.6
12 19.07 Ю 3 18 км 5/5 600 м
[]
+25.4 +16.3 57 +29 +29 душно 1006.7 896.0
18 19.07 СВ 3 13 км ?/? +17.1 +16.3 95 +17 +17 1007.6 893.8 +31.3
21 19.07 В 3 9000 м н/о +15.6 +15.3 98 +15 +15 1008.6 894.1
00 20.07 С 1 15 км 1/1 600 м
[]
+22.1 +15.2 65 +26 +36 душно 1007.4 895.4
03 20.07 Ю 4 20 км 4/4 600 м
[]
+27.5 +17.1 53 +31 +39 душно 1007.0 897.0
06 20.07 Ю 2 23 км 6/6 600 м
[]
+26.7 +17.7 58 +31 +37 душно 1006.2 896.0 +15.4
09 20.07 Ю 4 25 км 4/4 600 м
[]
+25.9 +16.7 57 +30 +30 душно 1005.8 895.3
12 20.07 С 1 28 км 9/9 600 м
[]
+23.1 +17.6 71 +28 +28 душно 1005.1 893.7
18 20.07 В 3 27 км ?/? +19.4 +18.4 94 +22 +22 комфорт 1003.1 890.6 +28.1
21 20.07 ЮВ 1 27 км н/о +19.7 +18.2 91 +23 +23 комфорт 1002.8 890.5
00 21.07 С 1 22 км 9/9 600 м
[]
+23.9 +18.5 72 +28 +30 душно 1001.3 890.6 0.0
03 21.07 С 3 22 км слаб. дождь 10/10 600 м
[]
+24.9 +19.9 74 +30 +30 душно 1000.2 890.0

 

Местоположение метеостанции Чанбай (Гирин, Китай): широта 41.35 долгота 128.16 высота над уровнем моря 1018 м.

В архиве по умолчанию представлена погода в Чанбае за последнюю неделю. Архивные данные за месяц целиком и за предыдущие месяцы, начиная с января 2011 года, Вы можете получить, выбрав интересующий диапазон дат из раскрывающегося списка и нажав кнопку "Ввод!".


*Определитесь, кто Вы:
робот инопланетянин человек

Внимание! Время в таблицах - всемирное. Для получения местного времени необходимо прибавить поправку, которая равна 8 ч.

Смотрите также архив погоды в соседних городах и на ближайших метеорологических станциях:

Погода в Хесене (КНДР) (6 км)
Погода в Самджиёне (КНДР) (54 км)
Погода в Пунгсане (КНДР) (59 км)
Погода в Линьцзяне (Гирин, Китай) (112 км)
Погода в Кимчхэке (КНДР) (115 км)
Погода в Чунгане (КНДР) (117 км)
Погода в Джангджине (КНДР) (133 км)
Погода в Канге (КНДР) (137 км)
Погода в Чхонджине (КНДР) (145 км)
Погода в Синпхо (КНДР) (147 км)

Пояснения к столбцам:

Ветер - указаны скорость ветра в м/с - средняя за 10 мин, порывы в срок и между сроками (в фигурных скобках) и направление, откуда дует ветер: С - северный, СВ - северо-восточный, В - восточный, ЮВ - юго-восточный, Ю - южный, ЮЗ - юго-западный, З - западный, СЗ - северо-западный.
Видимость - горизонтальная дальность видимости в метрах или километрах. При видимости от 1 до 10 км при отсутствии осадков обычно наблюдается дымка, при ухудшении видимости до 1 км и менее - туман. В сухую погоду видимость может ухудшаться дымом, пылью или мглою.
Явления - указаны атмосферные явления, наблюдавшиеся в срок или в последний час перед сроком; фигурными скобками обозначены явления, наблюдавшиеся между сроками (за 1-3 часа до срока); квадратными скобками обозначены град или гололедные отложения с указанием их диаметра в мм.
Облачность - указаны через наклонную черту общая и нижняя облачность в баллах и высота нижней границы облаков в метрах; квадратными скобками обозначены формы облаков: Ci - перистые, Cs - перисто-слоистые, Cc - перисто-кучевые, Ac - высококучевые, As - высокослоистые, Sc - слоисто-кучевые, Ns - слоисто-дождевые, Cu - кучевые, Cb - кучево-дождевые. Подробнее классификацию облаков см. в Атласе облаков (PDF).
T - Температура воздуха - температура, измеренная на высоте 2 м над землей.
Td - Температура точки росы - температура, при понижении до которой содержащийся в воздухе водяной пар достигнет насыщения.
f - Относительная влажность воздуха - влажноcть воздуха, измеренная на высоте 2 м над землей.
Te - Эффективная температура - температура, которую ощущает одетый по сезону человек в тени. Характеристика душности погоды. При расчете учитывается влияние влажности воздуха и скорости ветра на теплоощущения человека.
Tes - Эффективная температура на солнце - температура, которую ощущает человек, с поправкой на солнечный нагрев. Характеристика знойности погоды. Зависит от высоты солнца над горизонтом, облачности и скорости ветра. Ночью, в пасмурную погоду, а также при ветре 12 м/с и более поправка равна нулю.
P - Атмосферное давление - приведенное к уровню моря атмосферное давление.
Po - Атмосферное давление - измеренное на уровне метеостанции атмосферное давление.
Tmin - Минимальная температура - минимум температуры воздуха на высоте 2 м над землей.
Tmax - Максимальная температура - максимум температуры воздуха на высоте 2 м над землей.
R - Количество осадков - Количество выпавших осадков за период времени, мм. При наведении курсора мыши на число - период времени, за который выпало указанное количество осадков.
R24 - Количество осадков - Количество выпавших осадков за 24 часа, мм.
S - Снежный покров - Высота снежного покрова, см. При наведении курсора мыши на число - состояние снежного покрова и степень покрытия местности в баллах.